User: anonymous   Login
Location: Unspecified
(0.0000°N, 0.0000°E)
Time: 11:15:51
(UTC+02:00)
Language:

SJ-6B - Orbit

View from above orbital plane
View from above orbital plane
View from above satellite
View from above satellite

Ground track
Ground track

The orbit data is extracted from the following two-line orbital elements,

1 28415U 04035C   18168.16789039 +.00000395 +00000-0 +30504-4 0  9992
2 28415 097.7066 203.4160 0050925 323.0359 036.7363 15.06502313753525
Epoch (UTC): 17 June 2018 04:01:45
Eccentricity: 0.0050925
inclination: 97.7066°
perigee height: 511 km
apogee height: 582 km
right ascension of ascending node: 203.4160°
argument of perigee: 323.0359°
revolutions per day: 15.06502313
mean anomaly at epoch: 36.7363°
orbit number at epoch: 75352

The dashed part of the orbit path shows where the satellite is in the earth's shadow,  

DLR